Tracking 19192 objects as of 21-Jun-2018
HD Live streaming from Space Station
objects crossing your sky now

FENGYUN 1C DEB

Track FENGYUN 1C DEB now!
10-day predictions


NORAD ID: 31474
Int'l Code: 1999-025BVN
Perigee: 840.4 km
Apogee: 950.2 km
Inclination: 99.1 °
Period: 102.7 minutes
Semi major axis: 7266 km
RCS: 0.0133 m2 (small)
Launch date: May 10, 1999
Source: People's Republic of China (PRC)
Launch site: Taiyaun Space Center, China (TSC)

Note: This is SATELLITE DEBRIS
aabbcc
Your satellite tracking list
Your tracking list is empty




NASA's NSSDC Master Catalog

Two Line Element Set (TLE):
1 31474U 99025BVN 18172.19306796  .00000345  00000-0  25144-3 0  9995
2 31474  99.1497 149.0540 0075491 200.5366 159.2760 14.01629561568982
Source of the keplerian elements: AFSPC